Other Public Products
Issued by NWS Grand Forks, ND

Current Version | Previous Version | Text Only | Print | Product List | Glossary On
Versions: 1 2 3 4 5 6 7 8 9 10 11 12 13 14 15 16 17 18 19 20 21 22 23 24 25 26 27 28 29 30 31 32 33 34 35 36 37 38 39 40 41 42 43 44 45 46 47 48 49 50
000
FPUS83 KFGF 281431
OPUFGF
PRAIRIE TO PINES WEATHER ROUNDUP
NATIONAL WEATHER SERVICE EASTERN NORTH DAKOTA/GRAND FORKS ND
900 AM CDT TUE APR 28 2015

 **SATELLITE DATA USED TO AUGMENT SKY COVER AT AUTOMATED STATIONS**
 *****  WEATHER ACROSS EASTERN NORTH DAKOTA  *****

CITY           SKY/WX    TMP DP  RH WIND       PRES   REMARKS
GRAND FORKS    FOG       43  43 100 N3        30.31S VSB 1
GRAND FORKS AF CLOUDY    43  41  93 VRB1      30.30F
GRAND CITY NWS   N/A     41 N/A N/A N1          N/A
BUXTON         NOT AVBL
DEVILS LAKE    PTSUNNY   45  41  87 W3        30.29S
FARGO          PTSUNNY   48  43  82 N12       30.29F
WAHPETON ARPT  CLOUDY    45  41  87 N16       30.29R
$$

 *****  WEATHER ACROSS CENTRAL AND WESTERN NORTH DAKOTA  *****

CITY           SKY/WX    TMP DP  RH WIND       PRES   REMARKS
JAMESTOWN      SUNNY     47  43  86 NW6       30.30S
BISMARCK       SUNNY     42  37  82 W5        30.34S
MINOT          MOSUNNY   48  39  71 SW5       30.28S
MINOT AFB      MOSUNNY   49  48  97 W8        30.28S
GARRISON         N/A     43  40  89 CALM      30.31S
WILLISTON      MOSUNNY   42  38  85 S6        30.31S
DICKINSON      MOSUNNY   43  37  79 W5        30.31R
HETTINGER      SUNNY     40  37  89 CALM      30.34S
$$

 *****  OTHER OBSERVATIONS NORTHEAST NORTH DAKOTA  *****

CITY           SKY/WX    TMP DP  RH WIND       PRES   REMARKS
WALHALLA       FAIR      43  43 100 N3        30.31R
LANGDON        FAIR      45  45 100 CALM      30.29S
CAVALIER       FOG       37  37 100 CALM      30.31S VSB<1/4
GRAFTON        FOG       41  41 100 SE5       30.31F VSB<1/4
CANDO          FAIR      45  45 100 W3        30.30S
FORT TOTTEN      N/A     45  42  90 SW3       29.95S
ROLLA          NOT AVBL
RUGBY          NOT AVBL
 ***** THE ABOVE OBSERVATIONS ARE NON NWS ARE NOT QUALITY
        CONTROLLED AND MAY MIS-REPORT RAIN FOR SNOW...
$$

 *****  OTHER OBSERVATIONS SOUTHEAST NORTH DAKOTA *****

CITY           SKY/WX    TMP DP  RH WIND       PRES   REMARKS
COOPERSTOWN    NOT AVBL
VALLEY CITY    FAIR      46  46 100 NW8       30.31R
OAKES            N/A     45  45 100 N7        30.30F
GWINNER        MOSUNNY   48  46  93 N13       30.30F
SHEYENNE NWR     N/A     43  42  98 N10       29.95
BUFFALO        NOT AVBL
WYNDMERE       NOT AVBL
 ***** THE ABOVE OBSERVATIONS ARE NON NWS ARE NOT QUALITY
       CONTROLLED AND MAY MIS-REPORT RAIN FOR SNOW...
$$

  *****  WEATHER ACROSS NORTHERN MINNESOTA  *****

CITY           SKY/WX    TMP DP  RH WIND       PRES   REMARKS
FLAG ISLAND    SUNNY     43  36  75 NW9       30.26S
WARROAD        MOSUNNY   45  39  81 CALM      30.28F
ROSEAU         MOSUNNY   43  39  87 CALM      30.28F
HALLOCK        FOG       39  37  93 CALM      30.29F VSB 1/4
THF RVR FALLS  MOSUNNY   46  41  81 N5        30.29S
HALSTAD          N/A     41  39  94 N10         N/A
FOSSTON        CLOUDY    43  43 100 NE9       30.28S
BAUDETTE       CLOUDY    44  39  82 NW10      30.27S
WASKISH        CLOUDY    43  41  93 CALM      30.26F
CROOKSTON      CLOUDY    43  41  93 NE3       30.31S
$$
  *****  WEATHER ACROSS CENTRAL AND WEST MINNESOTA  *****

CITY           SKY/WX    TMP DP  RH WIND       PRES   REMARKS
BEMIDJI        CLOUDY    43  42  95 N8        30.25S
PARK RAPIDS    CLOUDY    47  44  90 N12       30.23R
WADENA         LGT RAIN  46  45  93 N6        30.23R
DETROIT LAKES  CLOUDY    46  43  87 N9G23     30.27R
MOORHEAD       PTSUNNY   43  41  93 N9        30.29F
FERGUS FALLS   CLOUDY    45  45 100 N14       30.27S FOG
ELBOW LAKE     CLOUDY    46  45  99 N14       30.24S FOG
MORRIS MN      CLOUDY    46  46 100 NW20      30.23R FOG
STAPLES        PTSUNNY   48  45  87 N6        30.21S
WHEATON        CLOUDY    45  43  93 NW17      30.29R
$$
  *****  WEATHER ELSEWHERE ACROSS MINNESOTA  *****

CITY           SKY/WX    TMP DP  RH WIND       PRES   REMARKS
DULUTH         PTSUNNY   55  32  41 N8        30.16R
INTRNTL FALLS  PTSUNNY   47  41  80 N10       30.23S
ELY            PTSUNNY   50  41  71 N3        30.17S
CLOQUET        PTSUNNY   52  28  40 NW10      30.16S
BRAINERD       CLOUDY    50  45  83 N8        30.21S
HIBBING        CLOUDY    52  43  71 NW10      30.17S
ALEXANDRIA     CLOUDY    50  45  83 N7        30.21F
SAINT CLOUD    LGT RAIN  53  43  68 N12G20    30.17S
MINNEAPOLIS    PTSUNNY   54  34  46 NW12      30.17R
$$

  *****  WEATHER ACROSS SOUTH DAKOTA  *****

CITY           SKY/WX    TMP DP  RH WIND       PRES   REMARKS
SIOUX FALLS    CLOUDY    50  43  77 N5        30.23R
BROOKINGS      CLOUDY    50  43  76 N16       30.24S
WATERTOWN      CLOUDY    49  44  83 N13       30.25S
HURON          MOSUNNY   51  43  74 N13       30.28S
SISSETON         N/A     50  45  83 N21       30.27R
ABERDEEN       CLOUDY    51  42  71 N15       30.31R
MITCHELL       CLOUDY    51  45  79 N14       30.29R
PIERRE         CLOUDY    47  41  80 NW9       30.32S
MOBRIDGE       MOSUNNY   43  40  89 NW7       30.31S
RAPID CITY     SUNNY     43  39  86 CALM      30.34S
$$

  *****  SOME WEATHER IN NEARBY STATES *****

CITY           SKY/WX    TMP DP  RH WIND       PRES   REMARKS
GLASGOW MT     SUNNY     44  37  76 SE13      30.24F
GREAT FALLS MT SUNNY     50  33  52 S9        30.16F
CHEYENNE WY    CLOUDY    40  36  86 SW3       30.34S
SCOTTSBLUFF NE CLOUDY    44  40  85 CALM      30.36S
OMAHA NE       MOSUNNY   51  39  63 N7        30.22S
DES MOINES IA  MOSUNNY   59  38  45 CALM      30.18S
DAVENPORT IA   SUNNY     52  38  58 CALM      30.15S
CHICAGO IL     MOSUNNY   46  34  62 VRB3      30.17R
EAU CLAIRE WI  SUNNY     50  35  56 SE3       30.16F
LA CROSSE WI   SUNNY     51  37  58 VRB5      30.18S
$$

  *****  SOME NATIONAL WEATHER *****

CITY           SKY/WX    TMP DP  RH WIND       PRES   REMARKS
LA GUARDIA NY  MOSUNNY   55  35  47 N17G28    29.80R
RALEIGH NC     MOSUNNY   54  36  50 VRB6      30.00R
ATLANTA GA     MOSUNNY   61  37  41 E14G22    29.95F
NEW ORLEANS LA CLOUDY    67  63  87 E8        29.81S
OKLAHOMA CITY  CLOUDY    51  45  79 NE10      30.15R
ALBUQUERQUE NM MOSUNNY   47  35  63 SE5       30.33R
SALT LAKE CITY MOSUNNY   50  38  63 E3        30.24R
LOS ANGELES CA CLEAR     63  39  41 NE6       29.95R
BOISE ID       SUNNY     52  31  44 SE13      30.17F
SEATTLE WA     MOCLDY    56  48  74 SW15      30.04S
$$

*** WEATHER ACROSS MANITOBA...SASKATCHEWAN AND ONTARIO ***
                ***ONTARIO***

CITY           SKY/WX    TMP DP  RH WIND       PRES   REMARKS
GERALDTON      PTSUNNY   52  34  50 W7        30.11S
THUNDER BAY    PTSUNNY   45  34  65 SW5       30.14F
SIOUX LOOKOUT  CLOUDY    39  34  81 N8        30.20F
TORONTO        MOSUNNY   54  39  58 NW12      30.03S
BIG TROUT LK   CLOUDY    37  36  93 W12G17    30.09S
PICKLE LAKE    CLOUDY    39  34  81 W7        30.15S
DRYDEN         CLOUDY    39  34  81 NW6       30.21F
KENORA         CLOUDY    37  30  75 N13       30.26S
$$
                *** MANITOBA***

CITY           SKY/WX    TMP DP  RH WIND       PRES   REMARKS
BRANDON        PTSUNNY   45  36  70 W5        30.28S
DAUPHIN        SUNNY     50  36  57 VRB2      30.24F
ISLAND LAKE    CLOUDY    36  30  80 NW10      30.21R
PILOT MOUND      N/A     41  39  93 CALM        N/A
THE PAS        MOSUNNY   41  36  81 SE9       30.14F
THOMPSON       CLOUDY    34  28  80 E5        30.21F
WINNIPEG       PTSUNNY   41  37  87 SE6       30.30S
LYNN LAKE      MOSUNNY   34  32  93 SE10      30.14F
CHURCHILL      CLOUDY    23  23 100 N10       30.26R WCI  12
GILLAM         CLOUDY    30  28  93 W6        30.21R WCI  24
$$
                ***SASKATCHEWAN***

CITY           SKY/WX    TMP DP  RH WIND       PRES   REMARKS
ESTEVAN        CLOUDY    45  39  81 SW8       30.28R
KINDERSLEY     MOSUNNY   48  30  49 S8        30.09F
LLOYDMINSTER   PTSUNNY   50  28  43 S10       30.03F
PRINCE ALBERT  MOSUNNY   45  37  76 VRB2      30.10S
REGINA         PTSUNNY   50  39  66 S6        30.21F



USA.gov is the U.S. government's official web portal to all federal, state and local government web resources and services.